Location: Pitton
(51.0667°N, 1.7000°W)
Time: 00:37:58
(UTC+00:00)

USA 186 - Pass Details

Date: 17 September 2019
Orbit: 261 x 450 km, 96.9° (Epoch: 07 October)

Event Time Altitude Azimuth Distance (km) Brightness Sun altitude
Exits shadow 20:19:49 - 201° (SSW) 1,967 5.1 -19.2°
Reaches altitude 10° 20:20:55 10° 210° (SSW) 1,568 4.6 -19.3°
Maximum altitude 20:23:44 24° 266° (W) 982 4.2 -19.7°
Drops below altitude 10° 20:26:36 10° 323° (NW) 1,602 5.7 -20.1°
Sets 20:28:56 0° 337° (NNW) 2,479 6.5 -20.4°
